Bay City, TX

5:15 PM CST on November 23, 2017 (GMT -0600)
Bay City

Weather History for KBYY - April, 2013

Change the Weather History Date:

Friday, April 26, 2013

  Actual Average (KLBX) Record (KLBX)
Temperature  
Mean Temperature 75 °F -  
Max Temperature 83 °F 78 °F 89 °F (2017)
Min Temperature 67 °F 62 °F 48 °F (2001)
Cooling Degree Days 10    
Growing Degree Days 25 (Base 50)    
Moisture  
Dew Point 70 °F    
Average Humidity 86    
Maximum Humidity 100    
Minimum Humidity 60    
Precipitation  
Precipitation 0.00 in - - ()
Sea Level Pressure  
Sea Level Pressure 30.13 in    
Wind  
Wind Speed 11 mph (SE)    
Max Wind Speed 20 mph    
Max Gust Speed 26 mph    
Visibility 9 miles    
Events      
Averages and records for this station are not official NWS values.
T = Trace of Precipitation, MM = Missing Value Source: NWS Daily Summary

Daily Weather History Graph

Daily Weather History Graph

Search for Another Location

Airport or City:

Trip Planner

Search our weather history database for the weather conditions in past years. The results will help you decide how hot, cold, wet, or windy it might be!

Date:

Astronomy

Apr. 26, 2013 Rise Set
Actual Time 6:46 AM CDT 7:56 PM CDT
Civil Twilight 6:21 AM CDT 8:21 PM CDT
Nautical Twilight 5:52 AM CDT 8:50 PM CDT
Astronomical Twilight 5:21 AM CDT 9:21 PM CDT
Moon 9:13 PM CDT (4/26) 7:18 AM CDT (4/26)
Length of Visible Light 13h 59m
Length of Day
13h 10m
Full, 99% of the Moon is Illuminated
Apr 26
Full
May 2
Last Quarter
May 9
New
May 17
First Quarter
May 24
Full

Hourly Weather History & Observations

Time (CDT) Temp. Heat Index Dew Point Humidity Pressure Visibility Wind Dir Wind Speed Gust Speed Precip Events Conditions
12:15 AM 67.3 °F - 67.3 °F 100% 30.21 in 10.0 mi East 6.9 mph - N/A   Overcast
12:35 AM 67.6 °F - 67.6 °F 100% 30.20 in 7.0 mi East 8.1 mph - N/A   Overcast
12:55 AM 68.0 °F - 68.0 °F 100% 30.20 in 7.0 mi ESE 8.1 mph - N/A   Overcast
1:15 AM 68.2 °F - 68.2 °F 100% 30.19 in 7.0 mi ESE 8.1 mph - N/A   Overcast
1:35 AM 68.5 °F - 68.5 °F 100% 30.18 in 7.0 mi ESE 9.2 mph - N/A   Overcast
1:55 AM 68.9 °F - 68.9 °F 100% 30.17 in 7.0 mi ESE 9.2 mph - N/A   Overcast
2:15 AM 68.9 °F - 68.9 °F 100% 30.17 in 10.0 mi ESE 9.2 mph - N/A   Overcast
2:35 AM 69.1 °F - 69.1 °F 100% 30.16 in 10.0 mi ESE 9.2 mph - N/A   Overcast
2:55 AM 69.3 °F - 69.3 °F 100% 30.15 in 10.0 mi ESE 10.4 mph - N/A   Overcast
3:15 AM 69.3 °F - 69.3 °F 100% 30.15 in 10.0 mi ESE 9.2 mph - N/A   Overcast
3:35 AM 69.3 °F - 69.3 °F 100% 30.14 in 10.0 mi ESE 10.4 mph - N/A   Overcast
3:55 AM 69.4 °F - 69.4 °F 100% 30.14 in 10.0 mi ESE 11.5 mph - N/A   Overcast
4:15 AM 69.8 °F - 69.8 °F 100% 30.13 in 10.0 mi ESE 9.2 mph - N/A   Overcast
4:35 AM 69.8 °F - 69.8 °F 100% 30.13 in 10.0 mi ESE 9.2 mph - N/A   Overcast
4:55 AM 69.8 °F - 69.8 °F 100% 30.13 in 10.0 mi ESE 9.2 mph - N/A   Overcast
5:15 AM 70.0 °F - 70.0 °F 100% 30.12 in 7.0 mi ESE 9.2 mph - N/A   Overcast
5:35 AM 70.0 °F - 70.0 °F 100% 30.12 in 7.0 mi ESE 9.2 mph - N/A   Overcast
5:55 AM 69.8 °F - 69.8 °F 100% 30.12 in 7.0 mi ESE 10.4 mph - N/A   Overcast
6:15 AM 69.6 °F - 69.6 °F 100% 30.11 in 7.0 mi ESE 11.5 mph - N/A   Overcast
6:35 AM 68.0 °F - 68.0 °F 100% 30.12 in 7.0 mi ESE 9.2 mph - N/A   Scattered Clouds
6:55 AM 68.7 °F - 68.7 °F 100% 30.13 in 5.0 mi ESE 8.1 mph - N/A   Clear
7:15 AM 68.5 °F - 68.5 °F 100% 30.14 in 5.0 mi ESE 9.2 mph - N/A   Clear
7:35 AM 68.9 °F - 68.9 °F 100% 30.14 in 5.0 mi ESE 8.1 mph - N/A   Clear
7:55 AM 69.8 °F - 69.8 °F 100% 30.15 in 7.0 mi ESE 10.4 mph - N/A   Clear
8:15 AM 70.9 °F - 70.9 °F 100% 30.15 in 7.0 mi ESE 10.4 mph - N/A   Clear
8:35 AM 72.3 °F - 72.3 °F 100% 30.15 in 10.0 mi ESE 11.5 mph - N/A   Clear
8:55 AM 73.6 °F - 73.2 °F 99% 30.16 in 10.0 mi ESE 12.7 mph - N/A   Scattered Clouds
9:15 AM 74.8 °F - 72.0 °F 91% 30.16 in 10.0 mi ESE 16.1 mph 21.9 mph N/A   Mostly Cloudy
9:35 AM 75.7 °F - 70.2 °F 83% 30.16 in 10.0 mi SE 12.7 mph 18.4 mph N/A   Mostly Cloudy
9:55 AM 76.8 °F - 69.4 °F 78% 30.16 in 10.0 mi ESE 12.7 mph 19.6 mph N/A   Mostly Cloudy
10:15 AM 77.9 °F - 69.3 °F 75% 30.16 in 10.0 mi SE 17.3 mph 21.9 mph N/A   Mostly Cloudy
10:35 AM 78.8 °F - 68.9 °F 72% 30.16 in 10.0 mi SE 13.8 mph 26.5 mph N/A   Mostly Cloudy
10:55 AM 79.5 °F - 69.3 °F 71% 30.17 in 10.0 mi SE 17.3 mph - N/A   Mostly Cloudy
11:15 AM 80.2 °F 83.2 °F 69.3 °F 69% 30.17 in 10.0 mi SE 13.8 mph - N/A   Mostly Cloudy
11:35 AM 80.8 °F 83.9 °F 69.4 °F 68% 30.18 in 10.0 mi SSE 16.1 mph 24.2 mph N/A   Mostly Cloudy
11:55 AM 80.4 °F 83.2 °F 68.7 °F 67% 30.18 in 10.0 mi SE 13.8 mph 24.2 mph N/A   Overcast
12:15 PM 80.2 °F 83.1 °F 68.9 °F 68% 30.17 in 10.0 mi SE 13.8 mph - N/A   Overcast
12:35 PM 80.6 °F 83.8 °F 69.4 °F 69% 30.16 in 10.0 mi SE 16.1 mph 26.5 mph N/A   Overcast
12:55 PM 81.3 °F 84.6 °F 69.4 °F 67% 30.16 in 10.0 mi SE 17.3 mph 21.9 mph N/A   Mostly Cloudy
1:15 PM 82.0 °F 85.5 °F 69.3 °F 65% 30.15 in 10.0 mi SE 16.1 mph 23.0 mph N/A   Mostly Cloudy
1:35 PM 82.2 °F 85.8 °F 69.4 °F 65% 30.15 in 10.0 mi SE 15.0 mph 20.7 mph N/A   Mostly Cloudy
1:55 PM 81.9 °F 85.4 °F 69.4 °F 66% 30.14 in 10.0 mi SE 16.1 mph 25.3 mph N/A   Mostly Cloudy
2:15 PM 82.2 °F 85.8 °F 69.3 °F 65% 30.14 in 10.0 mi SE 16.1 mph 24.2 mph N/A   Mostly Cloudy
2:35 PM 82.6 °F 85.9 °F 68.7 °F 63% 30.13 in 10.0 mi SE 13.8 mph 24.2 mph N/A   Mostly Cloudy
2:55 PM 83.1 °F 86.6 °F 69.1 °F 62% 30.12 in 10.0 mi SE 17.3 mph 25.3 mph N/A   Mostly Cloudy
3:15 PM 82.9 °F 86.5 °F 69.1 °F 63% 30.11 in 10.0 mi SE 19.6 mph 24.2 mph N/A   Mostly Cloudy
3:35 PM 83.5 °F 86.7 °F 68.2 °F 60% 30.11 in 10.0 mi SE 16.1 mph 23.0 mph N/A   Scattered Clouds
3:55 PM 83.5 °F 86.7 °F 68.2 °F 60% 30.11 in 10.0 mi SSE 13.8 mph 23.0 mph N/A   Scattered Clouds
4:15 PM 82.9 °F 86.3 °F 68.7 °F 62% 30.10 in 10.0 mi SE 18.4 mph 25.3 mph N/A   Scattered Clouds
4:35 PM 81.7 °F 84.9 °F 68.9 °F 65% 30.09 in 10.0 mi SE 15.0 mph 20.7 mph N/A   Clear
4:55 PM 81.5 °F 85.1 °F 70.0 °F 68% 30.08 in 10.0 mi SE 15.0 mph 23.0 mph N/A   Scattered Clouds
5:15 PM 81.0 °F 84.2 °F 69.4 °F 68% 30.09 in 10.0 mi SE 16.1 mph 23.0 mph N/A   Scattered Clouds
5:35 PM 79.5 °F - 68.7 °F 69% 30.09 in 10.0 mi SE 11.5 mph - N/A   Scattered Clouds
5:55 PM 78.1 °F - 68.0 °F 71% 30.08 in 10.0 mi SE 15.0 mph 20.7 mph N/A   Clear
6:15 PM 78.8 °F - 68.9 °F 72% 30.09 in 10.0 mi SE 8.1 mph - N/A   Scattered Clouds
6:35 PM 79.0 °F - 68.9 °F 71% 30.09 in 10.0 mi SE 11.5 mph 16.1 mph N/A   Mostly Cloudy
6:55 PM 78.1 °F - 67.8 °F 71% 30.10 in 10.0 mi SE 10.4 mph 17.3 mph N/A   Scattered Clouds
7:15 PM 76.8 °F - 68.5 °F 75% 30.10 in 10.0 mi ESE 11.5 mph - N/A   Scattered Clouds
7:35 PM 75.2 °F - 69.1 °F 81% 30.10 in 10.0 mi ESE 11.5 mph - N/A   Mostly Cloudy
7:55 PM 73.9 °F - 69.3 °F 85% 30.10 in 10.0 mi ESE 10.4 mph - N/A   Scattered Clouds
8:15 PM 73.2 °F - 70.2 °F 90% 30.10 in 10.0 mi ESE 9.2 mph - N/A   Mostly Cloudy
8:35 PM 72.9 °F - 72.5 °F 99% 30.10 in 10.0 mi ESE 10.4 mph - N/A   Mostly Cloudy
8:55 PM 72.5 °F - 72.5 °F 100% 30.10 in 10.0 mi ESE 9.2 mph - N/A   Mostly Cloudy
9:15 PM 72.5 °F - 72.5 °F 100% 30.10 in 10.0 mi ESE 13.8 mph - N/A   Mostly Cloudy
9:35 PM 72.3 °F - 72.3 °F 100% 30.11 in 10.0 mi SE 12.7 mph - N/A   Overcast
9:55 PM 72.1 °F - 72.1 °F 100% 30.11 in 10.0 mi ESE 10.4 mph - N/A   Overcast
10:15 PM 71.8 °F - 71.8 °F 100% 30.11 in 10.0 mi ESE 11.5 mph - N/A   Mostly Cloudy
10:35 PM 71.6 °F - 71.6 °F 100% 30.11 in 10.0 mi ESE 11.5 mph - N/A   Mostly Cloudy
10:55 PM 71.4 °F - 71.4 °F 100% 30.11 in 10.0 mi ESE 8.1 mph - N/A   Scattered Clouds
11:15 PM 70.9 °F - 70.9 °F 100% 30.12 in 7.0 mi SE 8.1 mph - N/A   Clear
11:35 PM 70.7 °F - 70.7 °F 100% 30.12 in - SE 6.9 mph - N/A   Mostly Cloudy
11:55 PM 70.7 °F - 70.7 °F 100% 30.12 in - SE 6.9 mph - N/A   Overcast